Time,TemperatureF,DewpointF,PressureIn,WindDirection,WindDirectionDegrees,WindSpeedMPH,WindSpeedGustMPH,Humidity,HourlyPrecipIn,Conditions,Clouds,dailyrainin,SoftwareType,DateUTC
2013-03-19 00:10:00,8.0,-6.0,30.06,NE,41,4.0,8.0,52,0.00,,,0.00,weatherlink.com 1.10,2013-03-19 08:10:00,
2013-03-19 00:25:00,7.3,-7.0,30.07,NNE,15,2.0,5.0,53,0.00,,,0.00,weatherlink.com 1.10,2013-03-19 08:25:00,
2013-03-19 00:40:00,6.8,-7.0,30.07,North,359,3.0,6.0,54,0.00,,,0.00,weatherlink.com 1.10,2013-03-19 08:40:00,
2013-03-19 00:55:00,7.0,-6.0,30.07,NNE,32,2.0,6.0,55,0.00,,,0.00,weatherlink.com 1.10,2013-03-19 08:55:00,
2013-03-19 01:10:00,6.9,-6.0,30.08,NE,44,1.0,5.0,55,0.00,,,0.00,weatherlink.com 1.10,2013-03-19 09:10:00,
2013-03-19 01:25:00,6.5,-6.0,30.08,NE,36,1.0,4.0,56,0.00,,,0.00,weatherlink.com 1.10,2013-03-19 09:25:00,
2013-03-19 01:40:00,5.4,-7.0,30.09,West,269,0.0,2.0,57,0.00,,,0.00,weatherlink.com 1.10,2013-03-19 09:40:00,
2013-03-19 01:55:00,4.2,-7.0,30.09,NNW,337,0.0,1.0,60,0.00,,,0.00,weatherlink.com 1.10,2013-03-19 09:55:00,
2013-03-19 02:10:00,4.1,-7.0,30.09,WNW,293,0.0,2.0,61,0.00,,,0.00,weatherlink.com 1.10,2013-03-19 10:10:00,
2013-03-19 02:25:00,4.0,-7.0,30.10,WNW,295,0.0,0.0,61,0.00,,,0.00,weatherlink.com 1.10,2013-03-19 10:25:00,
2013-03-19 02:40:00,4.0,-6.0,30.10,West,271,0.0,0.0,62,0.00,,,0.00,weatherlink.com 1.10,2013-03-19 10:40:00,
2013-03-19 02:55:00,4.0,-6.0,30.10,West,266,0.0,2.0,63,0.00,,,0.00,weatherlink.com 1.10,2013-03-19 10:55:00,
2013-03-19 03:10:00,4.1,-6.0,30.11,NE,49,2.0,3.0,63,0.00,,,0.00,weatherlink.com 1.10,2013-03-19 11:10:00,
2013-03-19 03:26:00,5.1,-6.0,30.11,NE,41,2.0,4.0,61,0.00,,,0.00,weatherlink.com 1.10,2013-03-19 11:26:00,
2013-03-19 03:41:00,4.4,-6.0,30.11,NE,53,0.0,1.0,62,0.00,,,0.00,weatherlink.com 1.10,2013-03-19 11:41:00,
2013-03-19 03:56:00,3.6,-6.0,30.11,NW,314,0.0,2.0,64,0.00,,,0.00,weatherlink.com 1.10,2013-03-19 11:56:00,
2013-03-19 04:41:00,3.7,-6.0,30.12,NW,309,2.0,4.0,65,0.00,,,0.00,weatherlink.com 1.10,2013-03-19 12:41:00,
2013-03-19 04:56:00,4.1,-6.0,30.12,NNW,342,2.0,4.0,64,0.00,,,0.00,weatherlink.com 1.10,2013-03-19 12:56:00,
2013-03-19 05:11:00,4.4,-6.0,30.12,NNW,337,2.0,3.0,63,0.00,,,0.00,weatherlink.com 1.10,2013-03-19 13:11:00,
2013-03-19 05:26:00,4.0,-6.0,30.13,NNW,345,1.0,4.0,64,0.00,,,0.00,weatherlink.com 1.10,2013-03-19 13:26:00,
2013-03-19 05:41:00,5.2,-5.0,30.13,NE,45,6.0,9.0,63,0.00,,,0.00,weatherlink.com 1.10,2013-03-19 13:41:00,
2013-03-19 05:56:00,6.2,-5.0,30.13,NE,39,4.0,12.0,61,0.00,,,0.00,weatherlink.com 1.10,2013-03-19 13:56:00,
2013-03-19 06:11:00,6.2,-5.0,30.13,ENE,64,5.0,9.0,61,0.00,,,0.00,weatherlink.com 1.10,2013-03-19 14:11:00,
2013-03-19 06:26:00,5.9,-5.0,30.14,ENE,63,4.0,7.0,62,0.00,,,0.00,weatherlink.com 1.10,2013-03-19 14:26:00,
2013-03-19 06:41:00,5.7,-5.0,30.14,NE,45,3.0,6.0,62,0.00,,,0.00,weatherlink.com 1.10,2013-03-19 14:41:00,
2013-03-19 06:57:00,5.6,-5.0,30.14,NE,41,4.0,6.0,62,0.00,,,0.00,weatherlink.com 1.10,2013-03-19 14:57:00,
2013-03-19 07:12:00,5.1,-5.0,30.14,NNW,335,1.0,3.0,62,0.00,,,0.00,weatherlink.com 1.10,2013-03-19 15:12:00,
2013-03-19 07:27:00,4.6,-5.0,30.14,ENE,58,0.0,2.0,64,0.00,,,0.00,weatherlink.com 1.10,2013-03-19 15:27:00,
2013-03-19 07:42:00,4.2,-5.0,30.14,NE,36,0.0,2.0,65,0.00,,,0.00,weatherlink.com 1.10,2013-03-19 15:42:00,
2013-03-19 07:57:00,3.5,-6.0,30.14,NE,49,0.0,0.0,66,0.00,,,0.00,weatherlink.com 1.10,2013-03-19 15:57:00,
2013-03-19 08:12:00,3.6,-5.0,30.15,ESE,106,1.0,5.0,66,0.00,,,0.00,weatherlink.com 1.10,2013-03-19 16:12:00,
2013-03-19 08:27:00,4.0,-5.0,30.15,ENE,60,6.0,6.0,66,0.00,,,0.00,weatherlink.com 1.10,2013-03-19 16:27:00,
2013-03-19 08:42:00,5.2,-5.0,30.15,ENE,78,0.0,2.0,63,0.00,,,0.00,weatherlink.com 1.10,2013-03-19 16:42:00,
2013-03-19 08:57:00,5.8,-5.0,30.15,WNW,294,0.0,1.0,62,0.00,,,0.00,weatherlink.com 1.10,2013-03-19 16:57:00,
2013-03-19 09:12:00,7.3,-4.0,30.16,NE,46,0.0,2.0,60,0.00,,,0.00,weatherlink.com 1.10,2013-03-19 17:12:00,
2013-03-19 09:27:00,7.3,-4.0,30.15,NE,55,2.0,3.0,59,0.00,,,0.00,weatherlink.com 1.10,2013-03-19 17:27:00,
2013-03-19 09:42:00,8.3,-5.0,30.15,East,82,6.0,6.0,56,0.00,,,0.00,weatherlink.com 1.10,2013-03-19 17:42:00,
2013-03-19 09:58:00,8.3,-5.0,30.15,NE,41,4.0,5.0,56,0.00,,,0.00,weatherlink.com 1.10,2013-03-19 17:58:00,
2013-03-19 10:13:00,9.4,-4.0,30.15,ESE,104,0.0,5.0,54,0.00,,,0.00,weatherlink.com 1.10,2013-03-19 18:13:00,
2013-03-19 10:28:00,9.9,-5.0,30.15,ENE,72,0.0,3.0,52,0.00,,,0.00,weatherlink.com 1.10,2013-03-19 18:28:00,
2013-03-19 10:43:00,11.0,-4.0,30.15,SW,228,0.0,1.0,51,0.00,,,0.00,weatherlink.com 1.10,2013-03-19 18:43:00,
2013-03-19 10:58:00,12.3,-4.0,30.15,South,172,0.0,3.0,49,0.00,,,0.00,weatherlink.com 1.10,2013-03-19 18:58:00,
2013-03-19 11:13:00,12.0,-4.0,30.15,SE,130,1.0,3.0,49,0.00,,,0.00,weatherlink.com 1.10,2013-03-19 19:13:00,
2013-03-19 11:28:00,12.8,-3.0,30.15,WSW,253,1.0,3.0,49,0.00,,,0.00,weatherlink.com 1.10,2013-03-19 19:28:00,
2013-03-19 11:43:00,12.1,-4.0,30.15,West,275,3.0,4.0,48,0.00,,,0.00,weatherlink.com 1.10,2013-03-19 19:43:00,
2013-03-19 11:58:00,11.9,-5.0,30.15,West,273,0.0,4.0,47,0.00,,,0.00,weatherlink.com 1.10,2013-03-19 19:58:00,
2013-03-19 12:13:00,12.8,-5.0,30.15,NW,305,1.0,4.0,44,0.00,,,0.00,weatherlink.com 1.10,2013-03-19 20:13:00,
2013-03-19 12:28:00,13.6,-5.0,30.15,ENE,70,2.0,5.0,43,0.00,,,0.00,weatherlink.com 1.10,2013-03-19 20:28:00,
2013-03-19 12:43:00,13.8,-6.0,30.14,WNW,285,0.0,4.0,42,0.00,,,0.00,weatherlink.com 1.10,2013-03-19 20:43:00,
2013-03-19 12:58:00,14.1,-6.0,30.14,NW,315,0.0,3.0,40,0.00,,,0.00,weatherlink.com 1.10,2013-03-19 20:58:00,
2013-03-19 13:13:00,14.9,-6.0,30.14,ENE,58,4.0,5.0,39,0.00,,,0.00,weatherlink.com 1.10,2013-03-19 21:13:00,
2013-03-19 13:29:00,14.0,-7.0,30.14,ENE,77,0.0,7.0,39,0.00,,,0.00,weatherlink.com 1.10,2013-03-19 21:29:00,
2013-03-19 13:44:00,15.1,-5.0,30.14,NW,314,1.0,3.0,40,0.00,,,0.00,weatherlink.com 1.10,2013-03-19 21:44:00,
2013-03-19 13:59:00,13.9,-7.0,30.14,NE,36,4.0,5.0,39,0.00,,,0.00,weatherlink.com 1.10,2013-03-19 21:59:00,
2013-03-19 14:14:00,14.1,-6.0,30.13,NNE,32,3.0,5.0,41,0.00,,,0.00,weatherlink.com 1.10,2013-03-19 22:14:00,
2013-03-19 14:29:00,15.4,-5.0,30.13,West,274,0.0,4.0,40,0.00,,,0.00,weatherlink.com 1.10,2013-03-19 22:29:00,
2013-03-19 14:44:00,14.8,-6.0,30.13,NE,56,4.0,7.0,39,0.00,,,0.00,weatherlink.com 1.10,2013-03-19 22:44:00,
2013-03-19 14:59:00,15.1,-6.0,30.13,WNW,298,2.0,6.0,39,0.00,,,0.00,weatherlink.com 1.10,2013-03-19 22:59:00,
2013-03-19 15:14:00,15.9,-4.0,30.12,SW,226,1.0,7.0,41,0.00,,,0.00,weatherlink.com 1.10,2013-03-19 23:14:00,
2013-03-19 15:29:00,16.2,-5.0,30.12,WNW,288,2.0,3.0,39,0.00,,,0.00,weatherlink.com 1.10,2013-03-19 23:29:00,
2013-03-19 15:44:00,14.6,-7.0,30.11,West,266,0.0,4.0,38,0.00,,,0.00,weatherlink.com 1.10,2013-03-19 23:44:00,
2013-03-19 15:59:00,13.9,-6.0,30.11,NNW,345,0.0,3.0,40,0.00,,,0.00,weatherlink.com 1.10,2013-03-19 23:59:00,
2013-03-19 16:14:00,14.9,-6.0,30.10,ENE,61,2.0,4.0,40,0.00,,,0.00,weatherlink.com 1.10,2013-03-20 00:14:00,
2013-03-19 16:29:00,14.6,-5.0,30.10,East,80,0.0,2.0,41,0.00,,,0.00,weatherlink.com 1.10,2013-03-20 00:29:00,
2013-03-19 16:45:00,14.2,-4.0,30.09,SW,232,0.0,3.0,44,0.00,,,0.00,weatherlink.com 1.10,2013-03-20 00:45:00,
2013-03-19 17:00:00,13.8,-3.0,30.09,NNW,329,0.0,4.0,47,0.00,,,0.00,weatherlink.com 1.10,2013-03-20 01:00:00,
2013-03-19 17:15:00,13.5,-5.0,30.09,NE,44,1.0,2.0,44,0.00,,,0.00,weatherlink.com 1.10,2013-03-20 01:15:00,
2013-03-19 17:30:00,13.2,-4.0,30.09,NE,53,3.0,6.0,47,0.00,,,0.00,weatherlink.com 1.10,2013-03-20 01:30:00,
2013-03-19 17:45:00,13.7,-4.0,30.09,SSW,208,0.0,3.0,45,0.00,,,0.00,weatherlink.com 1.10,2013-03-20 01:45:00,
2013-03-19 18:00:00,13.3,-6.0,30.09,NNE,12,3.0,5.0,42,0.00,,,0.00,weatherlink.com 1.10,2013-03-20 02:00:00,
2013-03-19 18:15:00,13.2,-6.0,30.09,NNE,32,4.0,6.0,42,0.00,,,0.00,weatherlink.com 1.10,2013-03-20 02:15:00,
2013-03-19 18:30:00,13.4,-8.0,30.08,NNW,339,1.0,4.0,38,0.00,,,0.00,weatherlink.com 1.10,2013-03-20 02:30:00,
2013-03-19 18:45:00,12.7,-8.0,30.08,NNE,20,1.0,3.0,40,0.00,,,0.00,weatherlink.com 1.10,2013-03-20 02:45:00,
2013-03-19 19:00:00,11.7,-8.0,30.08,NNE,21,0.0,4.0,40,0.00,,,0.00,weatherlink.com 1.10,2013-03-20 03:00:00,
2013-03-19 19:15:00,10.9,-9.0,30.08,North,1,0.0,3.0,40,0.00,,,0.00,weatherlink.com 1.10,2013-03-20 03:15:00,
2013-03-19 19:30:00,10.3,-9.0,30.08,NNW,338,1.0,4.0,41,0.00,,,0.00,weatherlink.com 1.10,2013-03-20 03:30:00,
2013-03-19 19:45:00,9.8,-10.0,30.08,NE,49,0.0,2.0,41,0.00,,,0.00,weatherlink.com 1.10,2013-03-20 03:45:00,
2013-03-19 20:00:00,8.9,-9.0,30.08,WNW,295,0.0,2.0,44,0.00,,,0.00,weatherlink.com 1.10,2013-03-20 04:00:00,
2013-03-19 20:16:00,7.7,-10.0,30.08,NE,53,0.0,1.0,44,0.00,,,0.00,weatherlink.com 1.10,2013-03-20 04:16:00,
2013-03-19 20:31:00,6.9,-10.0,30.08,NE,51,0.0,1.0,46,0.00,,,0.00,weatherlink.com 1.10,2013-03-20 04:31:00,
2013-03-19 20:46:00,7.0,-9.0,30.08,NNW,336,0.0,0.0,47,0.00,,,0.00,weatherlink.com 1.10,2013-03-20 04:46:00,
2013-03-19 21:01:00,6.2,-10.0,30.08,NE,34,0.0,0.0,48,0.00,,,0.00,weatherlink.com 1.10,2013-03-20 05:01:00,
2013-03-19 21:31:00,4.6,-9.0,30.08,NNE,21,0.0,0.0,53,0.00,,,0.00,weatherlink.com 1.10,2013-03-20 05:31:00,
2013-03-19 21:46:00,4.0,-10.0,30.08,NNE,21,0.0,0.0,53,0.00,,,0.00,weatherlink.com 1.10,2013-03-20 05:46:00,
2013-03-19 22:01:00,4.0,-9.0,30.07,North,7,0.0,0.0,54,0.00,,,0.00,weatherlink.com 1.10,2013-03-20 06:01:00,
2013-03-19 22:16:00,3.6,-10.0,30.07,North,8,0.0,0.0,54,0.00,,,0.00,weatherlink.com 1.10,2013-03-20 06:16:00,
2013-03-19 22:31:00,3.6,-10.0,30.07,NNE,12,0.0,0.0,54,0.00,,,0.00,weatherlink.com 1.10,2013-03-20 06:31:00,
2013-03-19 22:46:00,3.5,-10.0,30.07,NE,41,0.0,1.0,54,0.00,,,0.00,weatherlink.com 1.10,2013-03-20 06:46:00,
2013-03-19 23:01:00,4.3,-9.0,30.07,NE,43,1.0,1.0,53,0.00,,,0.00,weatherlink.com 1.10,2013-03-20 07:01:00,
2013-03-19 23:16:00,4.1,-10.0,30.07,North,11,0.0,1.0,53,0.00,,,0.00,weatherlink.com 1.10,2013-03-20 07:16:00,
2013-03-19 23:31:00,3.6,-10.0,30.06,North,356,0.0,1.0,54,0.00,,,0.00,weatherlink.com 1.10,2013-03-20 07:31:00,
2013-03-19 23:47:00,3.1,-10.0,30.06,North,358,0.0,0.0,55,0.00,,,0.00,weatherlink.com 1.10,2013-03-20 07:47:00,